"Pseudo-MPEC" for C1CJ1E5

Created 2026 Mar 13 12:35:08 UT using Find_Orb

Click here for an explanation of pseudo-MPECs

 
 Astrometry: 
     C1CJ1E5*1C2026 02 25.45229013 33 51.224+29 34 53.54   ~2PBZ 22.26GVNEOCPV00
     C1CJ1E5 1C2026 02 25.45788013 33 53.975+29 35 24.76   ~2PBZ 22.08GVNEOCPV00
     C1CJ1E5 1C2026 02 25.46347013 33 56.736+29 35 55.61   ~2PBZ 22.93GVNEOCPV00
     C1CJ1E5 1C2026 02 25.46906413 33 59.465+29 36 26.24   ~2PBZ 22.35GVNEOCPV00
     C1CJ1E5 1C2026 02 25.54171313 34 35.202+29 43 01.45   ~2PDK 22.61GVNEOCPV00
     C1CJ1E5 1C2026 02 25.54233113 34 35.526+29 43 05.23   ~2PDK 22.19GVNEOCPV00
     C1CJ1E5 1C2026 02 25.54295013 34 35.850+29 43 08.47   ~2PDK 22.89GVNEOCPV00
     C1CJ1E5 1C2026 02 25.54357113 34 36.131+29 43 11.42   ~2PDK 23.41GVNEOCPV00

Station data:
(V00) Kitt Peak-Bok  (N31.963125 W111.600190)  US/Arizona. Measurers T.
   Beuden, V. F. Carvajal, D. Fay, J. B. Fazekas, D. C. Fuls, A. R. Gibbs, A.
   D. Grauer, H. Gröller, J. K. Hogan, R. A. Kowalski, S. M. Larson, G. J.
   Leonard, D. Rankin, R. L. Seaman, F. C. Shelly, K. W. Wierzchoś. 2.25-m
   reflector + 4x4K mosaic CCD.

Orbital elements:  C1CJ1E5
   Perihelion 2026 Apr 30.944578 +/- 33 TT = 22:40:11.5 (JD 2461161.444578)
Epoch 2026 Feb 25.0 TT = JDT 2461096.5   Earth MOID: 0.0586   Ve: 0.0088
M 314.586272030 +/- 29              Me: 0.0619   Ma: 0.0308      AutoNEOCP
n   0.699268965 +/- 0.393           Peri.  208.545296 +/- 120
a   1.257109803 +/- 0.471           Node    66.885154 +/- 46
e   0.58604081 +/- 0.228            Incl.    4.828003 +/- 7
P   1.409/514.814d         H 25.08  G  0.15   U 12.1  SR
q 0.520392149 +/- 0.215    Q 1.993827457 +/- 6.78         (J2000 ecliptic)
From 8 observations 2026 Feb. 25 (2.2 hr); mean residual 0".30
Residuals in arcseconds: 
260225 V00  .47-  .64-    260225 V00  .33+  .41+    260225 V00  .23+  .12+    
260225 V00  .11-  .02+    260225 V00  .20-  .17-    260225 V00  .14-  .31-    
260225 V00  .35+  .33+    260225 V00  .02+  .25+    

Ephemerides (geocentric):
Date (UTC) HH   RA             Dec           delta  r     elong  mag " sig PA
---- --------  ------------   ------------  ------ ------ -----  --- --------
2026 03 13 13  21 02 35.401   +34 26 11.81  .10050 .93455  51.4 25??  34d  73
2026 03 13 14  21 03 30.422   +34 17 51.43  .10075 .93410  51.2 25??  34d  73
2026 03 13 15  21 04 24.999   +34 09 31.93  .10101 .93365  50.9 25??  34d  73
2026 03 13 16  21 05 19.134   +34 01 13.34  .10126 .93319  50.7 25??  34d  73
2026 03 13 17  21 06 12.833   +33 52 55.68  .10152 .93274  50.5 25??  34d  73
2026 03 13 18  21 07 06.099   +33 44 39.00  .10178 .93229  50.3 25??  34d  73
2026 03 13 19  21 07 58.935   +33 36 23.31  .10204 .93183  50.1 25??  34d  73
2026 03 13 20  21 08 51.346   +33 28 08.66  .10230 .93138  49.9 25??  34d  73
2026 03 13 21  21 09 43.335   +33 19 55.06  .10256 .93093  49.6 25??  34d  73
2026 03 13 22  21 10 34.906   +33 11 42.55  .10282 .93047  49.4 25??  34d  73
2026 03 13 23  21 11 26.063   +33 03 31.15  .10309 .93002  49.2 25??  35d  73
2026 03 14 00  21 12 16.809   +32 55 20.88  .10336 .92956  49.0 25??  35d  73
2026 03 14 01  21 13 07.148   +32 47 11.79  .10363 .92911  48.8 25??  35d  73
2026 03 14 02  21 13 57.084   +32 39 03.88  .10390 .92866  48.6 25??  35d  73
2026 03 14 03  21 14 46.620   +32 30 57.18  .10417 .92820  48.4 25??  35d  73
2026 03 14 04  21 15 35.761   +32 22 51.72  .10444 .92775  48.2 25??  35d  73
2026 03 14 05  21 16 24.508   +32 14 47.52  .10472 .92729  48.0 25??  35d  73
2026 03 14 06  21 17 12.868   +32 06 44.60  .10499 .92684  47.8 25??  35d  73
2026 03 14 07  21 18 00.841   +31 58 42.98  .10527 .92639  47.6 25??  35d  73
2026 03 14 08  21 18 48.434   +31 50 42.67  .10555 .92593  47.4 25??  35d  73
2026 03 14 09  21 19 35.648   +31 42 43.72  .10583 .92548  47.2 25??  35d  73
2026 03 14 10  21 20 22.487   +31 34 46.12  .10612 .92502  47.0 25??  35d  73
2026 03 14 11  21 21 08.956   +31 26 49.89  .10640 .92457  46.8 25??  36d  73
2026 03 14 12  21 21 55.056   +31 18 55.07  .10669 .92411  46.6 25??  36d  73
2026 03 14 13  21 22 40.793   +31 11 01.66  .10697 .92366  46.4 25??  36d  73
2026 03 14 14  21 23 26.168   +31 03 09.67  .10726 .92320  46.2 25??  36d  73
2026 03 14 15  21 24 11.187   +30 55 19.14  .10755 .92275  46.0 25??  36d  73
2026 03 14 16  21 24 55.851   +30 47 30.06  .10784 .92230  45.8 25??  36d  73
2026 03 14 17  21 25 40.164   +30 39 42.46  .10814 .92184  45.6 25??  36d  73
2026 03 14 18  21 26 24.131   +30 31 56.34  .10843 .92139  45.4 25??  36d  73
2026 03 14 19  21 27 07.753   +30 24 11.73  .10873 .92093  45.2 25??  36d  73
2026 03 14 20  21 27 51.034   +30 16 28.64  .10902 .92048  45.0 25??  36d  73
2026 03 14 21  21 28 33.978   +30 08 47.07  .10932 .92002  44.8 25??  36d  73
2026 03 14 22  21 29 16.587   +30 01 07.05  .10962 .91956  44.6 25??  36d  73
2026 03 14 23  21 29 58.865   +29 53 28.57  .10992 .91911  44.4 25??  37d  73
2026 03 15 00  21 30 40.815   +29 45 51.66  .11022 .91865  44.3 25??  37d  73
2026 03 15 01  21 31 22.441   +29 38 16.32  .11053 .91820  44.1 25??  37d  73
2026 03 15 02  21 32 03.744   +29 30 42.56  .11083 .91774  43.9 26??  37d  73
2026 03 15 03  21 32 44.730   +29 23 10.39  .11114 .91729  43.7 26??  37d  73
2026 03 15 04  21 33 25.399   +29 15 39.83  .11145 .91683  43.5 26??  37d  73
2026 03 15 05  21 34 05.756   +29 08 10.87  .11176 .91638  43.4 26??  37d  73
2026 03 15 06  21 34 45.803   +29 00 43.54  .11207 .91592  43.2 26??  37d  73
2026 03 15 07  21 35 25.544   +28 53 17.82  .11238 .91547  43.0 26??  37d  73
2026 03 15 08  21 36 04.981   +28 45 53.74  .11269 .91501  42.8 26??  37d  73
2026 03 15 09  21 36 44.118   +28 38 31.30  .11301 .91455  42.6 26??  37d  73
2026 03 15 10  21 37 22.957   +28 31 10.51  .11332 .91410  42.5 26??  37d  73
2026 03 15 11  21 38 01.501   +28 23 51.36  .11364 .91364  42.3 26??  37d  73
2026 03 15 12  21 38 39.753   +28 16 33.87  .11396 .91319  42.1 26??  38d  73